{"data":{"norad_id":67078,"intl_designator":"2025-298D","name":"STARLINK-36236","alt_names":[],"object_type":"PAYLOAD","status":"ACTIVE","operator":null,"country":"US","launch_date":"2025-12-14","launch_site_code":"AFWTR","launch_vehicle":null,"mission":null,"orbit_class":"UNKNOWN","rcs_meters":null,"size_class":null,"mass_kg":null,"dimensions":null,"purposes":["comms"],"wikipedia_slug":null,"has_3d_model":false,"image_url":null,"decayed_at":null,"tle_current":{"epoch":"2026-05-25T03:01:27.803136Z","epoch_age_seconds":71124,"freshness":"FRESH","line1":"1 67078U 25298D   26145.12601624  .00003022  00000+0  26090-3 0  9990","line2":"2 67078  70.0013 181.8592 0003914 267.6485  92.4226 14.98337214 24665","mean_motion":14.98337214,"eccentricity":0.0003914,"inclination_deg":70.0013,"raan_deg":181.8592,"arg_perigee_deg":267.6485,"mean_anomaly_deg":92.4226,"bstar":0.0002609,"rev_number":2466,"period_min":96.106536402159,"perigee_km":569.31328556808,"apogee_km":574.75387909994,"semimajor_km":6950.170582334,"source":"CELESTRAK","updated_at":"2026-05-25T13:38:21.443609Z"}}}